Somerset, MD

12:00 AM EST on January 18, 2017 (GMT -0500)
| | Change Station
Active Advisory: Small Craft Advisory

Elev -9999 ft 0.00 °N, 0.00 °E | Updated 0 second ago

Fog
Fog
°F
Feels Like °F
N
Wind Variable Wind from North
Gusts mph

Today
High -- | Low -- °F
--% Chance of Precip.
Yesterday
High -- | Low -- °F
Precip. -- in
Pressure 29.89 in
Visibility 0.1 miles
Clouds Mostly Cloudy 600 ft
Dew Point Not available.
Humidity Not available.
Rainfall --
Snow Depth Not available.
7:24 AM 5:13 PM
Waning Gibbous, 66% visible
METAR KDCA 180452Z 01003KT 1/8SM R01/0800V1200FT FG BKN000 BKN006 08/08 A2989 RMK AO2 SLP120 FG BKN000 T00780078 401170050
Pressure 29.89 in
Visibility 0.1 miles
Clouds Mostly Cloudy 600 ft
Dew Point Not available.
Humidity Not available.
Rainfall --
Snow Depth Not available.
7:24 AM 5:13 PM
Waning Gibbous, 66% visible
METAR KDCA 180452Z 01003KT 1/8SM R01/0800V1200FT FG BKN000 BKN006 08/08 A2989 RMK AO2 SLP120 FG BKN000 T00780078 401170050

Get Your Daily Forecast Email!

Thanks for signing up!

Be on the lookout for a verification email in your inbox.

You'll start receiving the daily forecast at 8 AM.

×

10-Day Weather Forecast

Almanac

Astronomy

Jan. 18, 2017 Rise Set
Actual Time
Civil Twilight
Nautical Twilight
Astronomical Twilight
Moon
Length of Visible Light
Length of Day
Tomorrow will be .
, % of the Moon is Illuminated

Today's Extremes

State Highs State Lows

Community

WunderPhotos

Upload Photos

1,962,540 photos uploaded!

WunderBlog® & News

Nearby

Air Quality

  Air Quality AQ Index Pollutant
Not available.

Snow Depth

Station Depth Elevation

Earthquake Activity

City Distance Mag. Time & Date
Minimum magnitude displayed is 2.5.

Coastal Water Temperatures

Place Temperature

Stations

Nearby Weather Stations

Station Location Temp. Windchill Dew Point Humidity Wind Precip. Elev Updated Type
                   

Watches & Warnings

Small Craft Advisory
Issued: 11:39 PM EST Jan. 17, 2017 – National Weather Service

... Small Craft Advisory remains in effect from 7 am to 6 PM EST
Wednesday...

* winds... 18 to 33 knots within the Small Craft Advisory.

Precautionary/preparedness actions...

A Small Craft Advisory means winds of 18 to 33 knots are imminent
or occurring. Boaters operating smaller vessels should avoid
navigating in these conditions.